This demonstration page uses our WeatherBlox Daily Observations layout. Learn more.

Left ArrowRight Arrow

34.74481, -87.66753

Hourly Observations for March 3, 2022

Temp ( °F °C ) Dew Point ( °F °C ) Humidity (%) Winds ( mph kmh ) Pressure ( in mb ) Visibility ( mi km ) Precip ( " mm )
12:53 am 00:53 Clear 49 9.4 43 6.1 80 80 SSW 3 6 30.12 1020 10 16 0.00 0.00
1:53 am 01:53 Clear 54 12.2 35 1.7 49 49 SW 3 6 30.11 1020 10 16 0.00 0.00
2:53 am 02:53 Clear 47 8.3 38 3.3 71 71 Calm 30.12 1020 10 16 0.00 0.00
3:53 am 03:53 Clear 45 7.2 37 2.8 74 74 N 3 6 30.13 1020 10 16 0.00 0.00
4:53 am 04:53 Clear 44 6.7 38 3.3 79 79 Calm 30.14 1021 10 16 0.00 0.00
5:53 am 05:53 Clear 43 6.1 37 2.8 80 80 Calm 30.16 1021 10 16 0.00 0.00
6:53 am 06:53 Sunny 43 6.1 38 3.3 82 82 Calm 30.16 1022 10 16 0.00 0.00
7:53 am 07:53 Sunny 52 11.1 43 6.1 72 72 Calm 30.18 1022 10 16 0.00 0.00
8:53 am 08:53 Sunny 60 15.6 41 5 50 50 Calm 30.17 1022 10 16 0.00 0.00
9:53 am 09:53 Sunny 69 20.6 37 2.8 31 31 W 9 15 30.18 1022 10 16 0.00 0.00
10:53 am 10:53 Sunny 72 22.2 36 2.2 27 27 W 9 15 30.17 1022 10 16 0.00 0.00
11:53 am 11:53 Sunny 76 24.4 36 2.2 23 23 W 13 20 30.16 1022 10 16 0.00 0.00
12:53 pm 12:53 Sunny 78 25.6 36 2.2 22 22 NW 5 7 30.13 1020 10 16 0.00 0.00
1:53 pm 13:53 Sunny 79 26.1 34 1.1 20 20 VRB 5 7 30.11 1020 10 16 0.00 0.00
2:53 pm 14:53 Sunny 80 26.7 33 0.6 18 18 WNW 8 13 30.11 1020 10 16 0.00 0.00
3:53 pm 15:53 Sunny 80 26.7 30 -1.1 16 16 Calm 30.10 1019 10 16 0.00 0.00
4:53 pm 16:53 Sunny 77 25 37 2.8 24 24 W 7 11 30.11 1020 10 16 0.00 0.00
5:53 pm 17:53 Clear 73 22.8 34 1.1 24 24 W 3 6 30.12 1020 10 16 0.00 0.00
6:53 pm 18:53 Clear 60 15.6 45 7.2 58 58 Calm 30.14 1021 10 16 0.00 0.00
7:53 pm 19:53 Clear 60 15.6 42 5.6 52 52 Calm 30.15 1021 10 16 0.00 0.00
8:53 pm 20:53 Clear 59 15 42 5.6 54 54 Calm 30.17 1022 8 13 0.00 0.00
9:53 pm 21:53 Clear 53 11.7 47 8.3 80 80 S 3 6 30.17 1022 10 16 0.00 0.00
10:53 pm 22:53 Clear 54 12.2 45 7.2 72 72 Calm 30.17 1022 10 16 0.00 0.00
11:53 pm 23:53 Clear 52 11.1 43 6.1 72 72 Calm 30.17 1022 10 16 0.00 0.00

Powered by AerisWeather